Simultaneous Nadir Overpasses (SNOs) Predictions

Prediction of SNOs between GOES-15 and TERRA Satellite Orbit:

Table of predicted SNOs for the next 14.0 days since TLE Epoch: 6/19/2016
Index Date Time (GOES-15) GOES-15 Lat,Lon TERRA Lat,Lon Distance(km) Time Diff (sec)
1 06/19/2016 19:13:47 -0.09,-135.44 -0.97,-131.30 470.36 80
2 06/20/2016 07:37:51 0.08,-135.45 -0.16,-136.49 117.93 80
3 06/22/2016 07:23:01 0.09,-135.47 0.53,-133.54 220.30 80
4 06/22/2016 19:46:55 -0.07,-135.47 0.60,-138.69 366.31 80
5 06/24/2016 19:34:44 -0.08,-135.48 -0.03,-135.74 28.81 80
6 06/26/2016 19:19:54 -0.09,-135.49 -0.66,-132.78 308.15 80
7 06/27/2016 07:43:57 0.07,-135.51 -0.46,-137.97 280.23 80
8 06/29/2016 07:29:06 0.07,-135.51 0.18,-135.02 55.95 80
9 07/01/2016 07:16:55
